Date,TemperatureHighF,TemperatureAvgF,TemperatureLowF,DewpointHighF,DewpointAvgF,DewpointLowF,HumidityHigh,HumidityAvg,HumidityLow,PressureMaxIn,PressureMinIn,WindSpeedMaxMPH,WindSpeedAvgMPH,GustSpeedMaxMPH,PrecipitationSumIn
2013-2-1,38.0,37.6,37.3,26.5,26.5,26.5,65,64,63,30.31,30.30,7,6,10,0.00
2013-2-2,40.5,38.1,32.1,26.7,22.6,9.7,63,54,32,30.33,30.26,8,5,12,0.00
2013-2-3,45.7,36.5,29.4,25.2,18.7,13.2,79,50,28,30.28,30.15,9,3,14,0.00
2013-2-4,48.3,37.2,30.1,25.5,18.6,12.7,62,48,25,30.27,30.08,11,4,13,0.00
2013-2-5,44.8,37.0,29.3,20.3,11.4,-1.5,65,36,18,30.04,29.89,21,8,32,0.00
2013-2-6,43.1,31.9,24.1,17.5,2.4,-7.5,51,29,13,30.23,30.02,11,3,15,0.00
2013-2-7,32.4,29.7,25.8,21.1,0.3,-12.5,82,30,15,30.07,29.92,24,11,29,0.00
2013-2-8,25.1,18.8,15.1,17.3,12.4,8.0,86,76,58,30.04,29.95,9,2,14,0.00
2013-2-9,28.5,19.9,12.4,15.2,10.4,6.4,86,67,47,30.25,30.08,11,3,14,0.00
2013-2-10,27.5,22.6,19.5,16.5,12.9,8.5,77,66,53,30.23,30.13,20,5,27,0.00
2013-2-11,23.1,21.5,19.9,11.8,10.4,9.0,62,62,62,30.24,30.21,10,10,20,0.00
2013-2-12,26.2,24.6,23.1,14.7,13.3,11.9,62,61,61,30.26,30.24,9,9,19,0.00
2013-2-13,29.3,27.8,26.2,17.5,16.1,14.7,61,61,61,30.29,30.26,8,8,18,0.00
2013-2-14,36.8,30.8,28.7,24.3,19.6,17.5,74,63,60,30.47,30.29,12,7,22,0.00
2013-2-15,47.0,35.5,25.3,22.8,19.4,11.5,82,55,32,30.51,30.31,10,4,16,0.00
2013-2-16,43.5,37.4,33.1,19.5,12.3,2.1,49,36,23,30.32,30.12,13,2,17,0.00
2013-2-17,42.9,34.2,26.9,19.9,10.5,4.0,66,39,20,30.08,29.96,16,5,23,0.00
2013-2-18,40.3,31.9,27.2,18.7,12.0,2.5,69,45,22,30.06,29.74,25,7,31,0.00
2013-2-19,27.8,21.8,17.2,22.5,13.1,-99.9,90,74,38,29.78,29.59,31,-6,34,0.00
2013-2-20,32.4,22.9,16.7,16.0,12.6,4.3,87,67,38,30.10,29.76,15,3,21,0.01
2013-2-21,30.9,23.1,15.7,15.9,11.4,5.0,86,62,37,30.28,29.96,22,4,23,0.01
2013-2-22,39.8,27.7,22.2,21.8,2.2,-99.9,74,46,25,30.32,30.07,28,-97,33,0.01
2013-2-23,33.2,24.8,15.4,22.8,12.9,1.4,80,61,39,30.33,29.82,41,10,41,0.00
2013-2-24,35.5,23.6,13.1,11.1,6.1,-0.1,78,50,26,30.46,30.29,23,7,24,0.00
2013-2-25,39.5,31.0,24.5,22.1,10.2,-2.5,78,44,18,30.30,30.13,32,10,35,0.00
2013-2-26,35.9,27.2,17.5,16.2,4.2,-6.2,68,40,16,30.44,30.17,15,4,20,0.00
2013-2-27,41.8,33.2,26.6,14.7,4.0,-3.6,52,30,18,30.44,30.29,20,4,22,0.00
2013-2-28,49.1,37.6,28.5,29.0,21.2,8.4,63,51,37,30.49,30.34,14,4,16,0.00